TELSTAR 19V (43562 NORAD) Tracking and Keplerian Element Data

This shows tracking and keplerian element data for the satellite.

Feedback or suggestion? Click here.




ElementValue
Catalog43562
NameTELSTAR 19V
Epoch Orbit1551
Epoch Day269.57549439
Epoch Year2022
RAAN193.5642
Inclination0.0147
Eccentricity0.0003125
Argument of Perigee327.1766
Mean Anonmoly348.8042
Mean Motion1.00269594
Decay Rate-2.77E-06
L11 43562U 18059A 22269.57549439 -.00000277 00000+0 00000+0 0 9995
L22 43562 0.0147 193.5642 0003125 327.1766 348.8042 1.00269594 15514

Live tracking and technical data element details for TELSTAR 19V (NORAD 43562). TELSTAR 19V can be tracked NOW for your location showing map with azimuth and elevation plus other details from your city location.

Track the satellite on the map from your city or location and see movement details for azimuth, elevation, latitude, longitude, range, height, and movement on the map or in text.







IsCatalogInMostPopularTable: catalog: 43562, numindb: 945
Update: records affected: 1



GetName: 43562 TELSTAR 19V

Hit Count: updated at: Wed, 05 Oct 2022 09:41:38 GMT